| time (UTC) | temp F | wind direction | speed knots | gust knots | rain 1hr in | rain 24hr in | rain mn in | humidity % | barometer mb |
| 20260507134536 | 50 | 311 | 2.6 | 6.1 | 0.00 | 0.82 | 0.17 | 81 | 1004.0 |
| 20260507133036 | 50 | 352 | 2.6 | 6.1 | 0.00 | 0.82 | 0.17 | 81 | 1004.3 |
| 20260507131536 | 49 | 292 | 3.5 | 8.7 | 0.00 | 0.82 | 0.17 | 81 | 1004.2 |
| 20260507130054 | 49 | 317 | 2.6 | 7.8 | 0.00 | 0.82 | 0.17 | 82 | 1004.3 |
| 20260507124547 | 47 | 315 | 0.9 | 6.1 | 0.00 | 0.82 | 0.17 | 86 | 1004.2 |
| 20260507123041 | 47 | 291 | 4.3 | 7.8 | 0.00 | 0.82 | 0.17 | 86 | 1004.4 |
| 20260507121539 | 47 | 309 | 0.9 | 7.0 | 0.00 | 0.82 | 0.17 | 90 | 1004.6 |
| 20260507120043 | 46 | 301 | 1.7 | 6.1 | 0.00 | 0.82 | 0.17 | 93 | 1004.2 |
| 20260507114539 | 45 | 300 | 0.9 | 5.2 | 0.00 | 0.83 | 0.17 | 95 | 1004.9 |
| 20260507113037 | 45 | 284 | 2.6 | 8.7 | 0.00 | 0.83 | 0.17 | 95 | 1004.6 |
| 20260507111536 | 45 | 294 | 4.3 | 8.7 | 0.00 | 0.83 | 0.17 | 96 | 1004.2 |
| 20260507110044 | 44 | 293 | 3.5 | 7.8 | 0.00 | 0.83 | 0.17 | 96 | 1004.3 |
| 20260507104536 | 45 | 308 | 2.6 | 7.8 | 0.00 | 0.83 | 0.17 | 97 | 1004.1 |
| 20260507103040 | 44 | 284 | 3.5 | 7.8 | 0.00 | 0.83 | 0.17 | 96 | 1004.0 |
| 20260507101542 | 45 | 304 | 2.6 | 5.2 | 0.00 | 0.83 | 0.17 | 97 | 1003.6 |
| 20260507100048 | 45 | 301 | 0.9 | 3.5 | 0.00 | 0.83 | 0.17 | 96 | 1003.8 |
| 20260507094537 | 45 | 268 | 0.9 | 5.2 | 0.00 | 0.83 | 0.17 | 97 | 1004.0 |
| 20260507093036 | 45 | 319 | 1.7 | 4.3 | 0.00 | 0.83 | 0.17 | 96 | 1003.7 |
| 20260507091540 | 45 | 317 | 1.7 | 4.3 | 0.00 | 0.83 | 0.17 | 97 | 1003.6 |
| 20260507090041 | 45 | 319 | 1.7 | 7.0 | 0.00 | 0.83 | 0.17 | 96 | 1003.4 |
| 20260507084544 | 45 | 288 | 0.0 | 4.3 | 0.00 | 0.83 | 0.17 | 96 | 1003.2 |
| 20260507083058 | 45 | 292 | 1.7 | 5.2 | 0.00 | 0.83 | 0.17 | 96 | 1003.5 |
| 20260507081537 | 45 | 296 | 1.7 | 5.2 | 0.01 | 0.83 | 0.17 | 96 | 1003.4 |
| 20260507080040 | 45 | 330 | 2.6 | 7.0 | 0.01 | 0.83 | 0.17 | 96 | 1003.3 |
| 20260507074539 | 45 | 335 | 2.6 | 7.8 | 0.01 | 0.83 | 0.17 | 96 | 1003.2 |
| 20260507073049 | 45 | 350 | 2.6 | 10.4 | 0.02 | 0.83 | 0.17 | 96 | 1003.1 |
| 20260507071537 | 46 | 25 | 2.6 | 7.8 | 0.03 | 0.82 | 0.16 | 97 | 1003.1 |
| 20260507070040 | 46 | 344 | 1.7 | 9.6 | 0.07 | 0.82 | 0.16 | 97 | 1002.7 |
| 20260507064542 | 46 | 5 | 0.9 | 6.1 | 0.08 | 0.82 | 0.16 | 96 | 1002.6 |
| 20260507063038 | 46 | 36 | 1.7 | 7.8 | 0.09 | 0.81 | 0.15 | 97 | 1002.9 |
| 20260507061537 | 47 | 325 | 4.3 | 7.8 | 0.11 | 0.79 | 0.13 | 97 | 1003.4 |
| 20260507060045 | 47 | 325 | 1.7 | 7.0 | 0.08 | 0.75 | 0.09 | 97 | 1002.7 |
| 20260507054540 | 47 | 292 | 2.6 | 11.3 | 0.07 | 0.74 | 0.08 | 97 | 1002.0 |
| 20260507053041 | 49 | 36 | 3.5 | 17.4 | 0.06 | 0.72 | 0.06 | 96 | 1002.6 |
| 20260507051537 | 51 | 279 | 5.2 | 12.2 | 0.02 | 0.68 | 0.02 | 97 | 1002.4 |
| 20260507050039 | 51 | 264 | 5.2 | 11.3 | 0.01 | 0.67 | 0.01 | 97 | 1002.3 |
| 20260507044543 | 51 | 213 | 6.1 | 9.6 | 0.03 | 0.67 | 0.01 | 97 | 1002.2 |
| 20260507043038 | 51 | 200 | 6.1 | 13.9 | 0.04 | 0.66 | 0.00 | 97 | 1001.9 |
| 20260507041543 | 51 | 275 | 5.2 | 10.4 | 0.04 | 0.66 | 0.00 | 97 | 1002.2 |
| 20260507040040 | 52 | 232 | 5.2 | 13.0 | 0.05 | 0.66 | 0.00 | 97 | 1002.2 |
| 20260507034537 | 51 | 231 | 4.3 | 9.6 | 0.03 | 0.64 | 0.64 | 97 | 1002.2 |
| 20260507033036 | 51 | 190 | 3.5 | 8.7 | 0.01 | 0.62 | 0.62 | 97 | 1002.2 |
| 20260507031535 | 51 | 193 | 3.5 | 7.8 | 0.02 | 0.62 | 0.62 | 97 | 1002.3 |
| 20260507030037 | 51 | 172 | 2.6 | 8.7 | 0.02 | 0.61 | 0.61 | 97 | 1002.3 |
| 20260507024541 | 51 | 168 | 3.5 | 6.1 | 0.09 | 0.61 | 0.61 | 97 | 1002.6 |
| 20260507023041 | 51 | 143 | 2.6 | 9.6 | 0.12 | 0.61 | 0.61 | 96 | 1002.9 |
| 20260507021544 | 52 | 183 | 2.6 | 7.8 | 0.12 | 0.60 | 0.60 | 97 | 1003.3 |
| 20260507020048 | 52 | 178 | 2.6 | 8.7 | 0.11 | 0.58 | 0.58 | 97 | 1003.6 |
| 20260507014549 | 52 | 177 | 1.7 | 7.8 | 0.03 | 0.51 | 0.51 | 96 | 1004.0 |
| 20260507013042 | 52 | 136 | 3.5 | 8.7 | 0.01 | 0.49 | 0.49 | 96 | 1004.4 |
| 20260507011536 | 52 | 191 | 5.2 | 10.4 | 0.02 | 0.48 | 0.48 | 96 | 1004.6 |
| 20260507010036 | 52 | 175 | 2.6 | 9.6 | 0.08 | 0.48 | 0.48 | 96 | 1004.8 |
| 20260507004540 | 52 | 223 | 4.3 | 10.4 | 0.11 | 0.48 | 0.48 | 96 | 1005.0 |
| 20260507003036 | 52 | 180 | 4.3 | 10.4 | 0.15 | 0.47 | 0.47 | 96 | 1005.0 |
| 20260507001535 | 52 | 202 | 4.3 | 10.4 | 0.19 | 0.46 | 0.46 | 96 | 1005.1 |
| 20260507000036 | 52 | 188 | 5.2 | 14.8 | 0.17 | 0.40 | 0.40 | 96 | 1005.2 |
| 20260506234538 | 52 | 180 | 3.5 | 11.3 | 0.16 | 0.36 | 0.36 | 96 | 1005.1 |
| 20260506233037 | 52 | 185 | 3.5 | 7.8 | 0.15 | 0.32 | 0.32 | 96 | 1005.0 |
| 20260506231548 | 53 | 213 | 4.3 | 10.4 | 0.16 | 0.27 | 0.27 | 96 | 1005.4 |
| 20260506230051 | 53 | 205 | 2.6 | 9.6 | 0.14 | 0.23 | 0.23 | 96 | 1005.3 |
| 20260506224541 | 53 | 163 | 3.5 | 11.3 | 0.13 | 0.20 | 0.20 | 95 | 1005.7 |
| 20260506223052 | 54 | 189 | 5.2 | 13.9 | 0.11 | 0.17 | 0.17 | 95 | 1005.8 |
| 20260506221542 | 54 | 178 | 5.2 | 13.0 | 0.07 | 0.11 | 0.11 | 95 | 1005.8 |
| 20260506220038 | 53 | 171 | 5.2 | 13.0 | 0.06 | 0.09 | 0.09 | 95 | 1005.9 |
| 20260506214536 | 54 | 205 | 3.5 | 9.6 | 0.06 | 0.07 | 0.07 | 94 | 1005.9 |
| 20260506213045 | 54 | 184 | 2.6 | 10.4 | 0.05 | 0.06 | 0.06 | 94 | 1005.9 |
| 20260506211547 | 54 | 200 | 3.5 | 11.3 | 0.03 | 0.04 | 0.04 | 93 | 1005.8 |
| 20260506210040 | 54 | 203 | 5.2 | 11.3 | 0.01 | 0.02 | 0.02 | 92 | 1006.4 |
| 20260506204546 | 55 | 203 | 5.2 | 14.8 | 0.00 | 0.01 | 0.01 | 90 | 1006.5 |
| 20260506203038 | 56 | 210 | 5.2 | 16.5 | 0.00 | 0.01 | 0.01 | 88 | 1006.3 |
| 20260506201551 | 56 | 182 | 3.5 | 13.0 | 0.00 | 0.01 | 0.01 | 88 | 1005.6 |
| 20260506200043 | 56 | 182 | 6.1 | 12.2 | 0.00 | 0.01 | 0.01 | 87 | 1006.2 |
| 20260506194543 | 56 | 203 | 3.5 | 14.8 | 0.00 | 0.01 | 0.01 | 85 | 1007.0 |
| 20260506193039 | 57 | 207 | 4.3 | 12.2 | 0.00 | 0.01 | 0.01 | 85 | 1006.7 |
| 20260506191544 | 58 | 157 | 3.5 | 9.6 | 0.00 | 0.01 | 0.01 | 84 | 1006.7 |
| 20260506190043 | 58 | 165 | 3.5 | 12.2 | 0.00 | 0.01 | 0.01 | 84 | 1006.7 |
| 20260506184540 | 58 | 212 | 6.1 | 16.5 | 0.00 | 0.01 | 0.01 | 84 | 1006.6 |
| 20260506183047 | 58 | 183 | 4.3 | 11.3 | 0.00 | 0.01 | 0.01 | 84 | 1006.5 |
| 20260506181538 | 58 | 189 | 5.2 | 10.4 | 0.00 | 0.01 | 0.01 | 84 | 1007.1 |
| 20260506180048 | 58 | 215 | 5.2 | 12.2 | 0.00 | 0.01 | 0.01 | 85 | 1007.3 |
| 20260506174545 | 57 | 192 | 5.2 | 12.2 | 0.00 | 0.01 | 0.01 | 85 | 1007.6 |
| 20260506173049 | 57 | 174 | 4.3 | 12.2 | 0.00 | 0.01 | 0.01 | 86 | 1007.6 |
| 20260506171540 | 57 | 192 | 7.8 | 13.0 | 0.00 | 0.01 | 0.01 | 85 | 1008.0 |
| 20260506170055 | 57 | 222 | 6.1 | 12.2 | 0.00 | 0.01 | 0.01 | 86 | 1008.1 |
| 20260506164536 | 57 | 215 | 4.3 | 12.2 | 0.00 | 0.01 | 0.01 | 86 | 1008.2 |
| 20260506163036 | 57 | 199 | 4.3 | 9.6 | 0.00 | 0.01 | 0.01 | 86 | 1008.4 |
| 20260506161544 | 57 | 219 | 2.6 | 7.0 | 0.00 | 0.01 | 0.01 | 86 | 1008.4 |
| 20260506160041 | 56 | 119 | 2.6 | 10.4 | 0.00 | 0.01 | 0.01 | 86 | 1008.5 |
| 20260506154541 | 58 | 184 | 2.6 | 12.2 | 0.00 | 0.01 | 0.01 | 84 | 1008.4 |
| 20260506153035 | 58 | 193 | 3.5 | 8.7 | 0.00 | 0.01 | 0.01 | 82 | 1008.1 |
| 20260506151539 | 59 | 142 | 1.7 | 14.8 | 0.00 | 0.01 | 0.01 | 81 | 1008.2 |
| 20260506150043 | 59 | 161 | 2.6 | 7.8 | 0.00 | 0.01 | 0.01 | 80 | 1008.8 |
| 20260506144550 | 59 | 176 | 2.6 | 6.1 | 0.00 | 0.01 | 0.01 | 81 | 1009.1 |
| 20260506143036 | 59 | 235 | 1.7 | 4.3 | 0.00 | 0.01 | 0.01 | 81 | 1009.3 |
| 20260506141538 | 58 | 173 | 0.9 | 5.2 | 0.00 | 0.01 | 0.01 | 83 | 1009.0 |
| 20260506140036 | 57 | 148 | 1.7 | 7.8 | 0.00 | 0.01 | 0.01 | 83 | 1009.1 |